Location: Mount Graham
(32.7016°N, 109.8912°W)
Time: 19:43:10
(UTC-07:00)

Daily predictions for brighter satellites

Satellite Brightness Start Highest point End
(mag) Time Altitude Azimuth Time Altitude Azimuth Time Altitude Azimuth
Cosmos 1980 Rocket 2.2 19:11:30 10° SSW 19:17:07 79° ESE 19:22:50 10° NNE
H-2A R/B (2) 3.9 19:16:58 10° WSW 19:20:18 25° S 19:29:22 10° SE
Cosmos 1933 Rocket 4.3 19:18:06 10° NNW 19:22:30 61° W 19:26:53 10° S
CZ-2D R/B 4.3 19:20:12 10° SE 19:23:34 29° ENE 19:26:58 10° NNE
SEDSat Delta rocket 3.9 19:19:14 10° SW 19:24:03 45° SSE 19:29:35 10° E
Cosmos 2227 Rocket 3.7 19:23:59 10° NW 19:29:11 39° WSW 19:34:22 10° S
GPS 2-04 Rocket1 3.1 19:29:09 10° W 19:32:33 45° SSW 19:36:03 10° SE
ATLAS CENTAUR R/B 1.9 19:31:03 10° NNW 19:33:46 71° NE 19:40:41 10° SE
SL-16 R/B 2.8 19:28:48 10° SSE 19:33:49 33° ESE 19:38:50 10° NE
Hubble Space Telescope 3.2 19:32:52 10° SW 19:34:28 12° SSW 19:36:05 10° S
USA 186 2.8 19:34:07 12° ESE 19:35:53 21° ENE 19:38:04 10° NNE
HJ-1C 3.6 19:33:19 10° S 19:36:46 80° WSW 19:40:13 10° NNW
FengYun 1-2 T 4.3 19:31:24 10° SSE 19:37:03 88° ENE 19:42:45 10° NNW
Cosmos 1707 Rocket 3.6 19:34:35 10° S 19:38:57 59° E 19:43:19 10° NNE
Nadezhda 4 Rocket 4.0 19:34:29 10° N 19:40:46 75° E 19:47:04 10° S
Lacrosse 4 Rocket 3.5 19:40:49 10° NNE 19:43:06 14° NE 19:45:08 11° E
Helios 1B rocket 3.0 19:39:32 10° NNE 19:43:17 34° E 19:47:00 10° SSE
Cosmos 1634 Rocket 4.2 19:38:11 10° SSE 19:44:14 53° E 19:50:22 10° NNE
Intercosmos 25 Rocket 4.2 19:43:45 14° SE 19:45:34 21° E 19:48:12 10° NE
ALOS 3.1 19:41:53 10° S 19:46:25 53° W 19:50:59 10° NNW
Milstar 3 3.1 19:38:36 10° W 19:47:33 64° S 19:53:09 15° ESE
Sakura Rocket 4.4 19:46:33 10° SSW 19:49:18 18° SSE 19:50:45 16° SE
Cosmos 1092 Rocket 4.1 19:44:18 10° N 19:50:36 63° E 19:56:51 10° SSE
Cosmos 1486 Rocket 4.1 19:49:57 10° N 19:55:07 58° ENE 19:59:43 13° SSE
Resurs 1-3 3.6 19:52:39 10° SSE 19:57:02 88° ENE 20:01:26 10° NNW
Gblst 52 Del rocket 4.1 19:53:35 10° NW 19:59:25 86° NE 20:03:26 19° SE
Cosmos 1408 3.7 19:57:53 10° NNE 20:01:03 26° E 20:01:58 24° ESE
Cosmos 1869 Rocket 3.6 19:57:05 10° N 20:01:35 87° WSW 20:06:01 10° S
Cosmos 1992 Rocket 4.4 19:56:52 10° S 20:01:42 40° E 20:06:34 10° NNE
Cosmos 2227 4.2 20:01:21 10° NNW 20:07:04 66° ENE 20:11:15 18° SSE
Atlas Centaur 2 3.0 20:01:48 10° SW 20:08:22 50° SSE 20:14:12 18° E
SL-8 R/B 4.1 20:04:07 10° WNW 20:08:50 56° SW 20:11:58 20° SSE
Cosmos 1455 3.8 20:06:14 10° SSW 20:09:47 37° W 20:13:20 10° NNW
Cosmos 2242 Rocket 3.6 20:06:22 10° S 20:10:50 64° E 20:15:17 10° NNE
Helios 1A 2.9 20:13:13 21° SSE 20:15:54 69° ENE 20:20:08 10° N
Cosmos 1869 4.0 20:19:30 10° SSW 20:23:19 53° W 20:27:11 10° N
Cosmos 1627 Rocket 4.4 20:18:37 10° N 20:24:50 77° E 20:29:47 16° S
Cosmos 2279 Rocket 3.9 20:19:13 10° S 20:25:24 68° E 20:31:35 10° NNE
Cosmos 1503 Rocket 4.1 20:21:21 10° N 20:26:31 56° ENE 20:28:32 34° SE
CZ-4B DEB 2.5 20:26:45 68° E 20:26:48 68° ENE 20:29:50 10° N
DELTA 2 R/B (1) 3.6 20:22:20 10° WNW 20:27:56 72° SSW 20:30:21 35° SE
Cosmos 2195 Rocket 4.4 20:22:06 10° N 20:28:15 85° E 20:33:22 16° S
Resurs 01 Rocket 3.3 20:24:23 10° SSW 20:28:22 32° W 20:32:22 10° NW
Cosmos 1354 Rocket 4.0 20:25:19 10° N 20:30:33 63° ENE 20:32:34 36° SE
YAOGAN 6 3.6 20:31:23 31° NE 20:31:23 31° NE 20:34:09 10° N
SJ-11-01 4.2 20:30:00 33° SSE 20:32:01 72° ENE 20:36:40 10° N
OAO 3 Rocket 3.5 20:27:10 10° W 20:32:03 67° N 20:34:28 30° ENE
Meteor 1-29 3.8 20:33:48 10° N 20:37:10 50° WNW 20:40:29 10° SSW
SPOT 5 4.3 20:43:25 23° ENE 20:43:25 23° ENE 20:46:32 10° NNE
H-2A R/B 4.5 12:36:39 10° SSW 20:44:41 75° S 20:51:40 29° E
Cosmos 1428 Rocket 4.3 20:41:00 10° N 20:47:06 71° E 20:49:26 39° SSE
Cosmos 2180 Rocket 4.4 20:41:33 11° S 20:47:42 85° E 20:54:04 10° N
Cosmos 1933 3.3 20:47:17 54° SSW 20:48:09 83° W 20:52:12 10° N
Meteor 2-10 Rocket 3.8 20:46:40 40° SSE 20:48:34 60° E 20:54:17 10° NNE
Envisat 3.3 20:45:59 26° S 20:48:48 66° W 20:53:51 10° NNW
Cosmos 220 Rocket 4.1 20:44:43 10° NNW 20:49:10 73° WSW 20:50:11 51° S
Cosmos 2263 Rocket 2.4 20:44:04 10° N 20:49:26 47° ENE 20:50:08 45° E
Cosmos 2322 Rocket 3.2 20:44:32 10° SW 20:49:53 46° WNW 20:55:17 10° N
OTV 4 3.3 20:50:43 10° WSW 20:51:16 12° WSW 20:51:16 12° WSW
Cosmos 2360 Rocket 2.0 20:57:15 30° S 21:00:07 77° ESE 21:05:48 10° NNE
Cosmos 1825 3.3 20:57:59 10° NNW 21:01:33 39° W 21:02:12 36° WSW
Cosmos 2322 3.5 21:07:11 61° S 21:08:10 76° ESE 21:13:52 10° NNE
NOAA 11 4.2 21:09:52 62° ENE 21:09:52 62° ENE 21:15:17 10° N
SEDSat Delta rocket 3.5 21:04:45 10° W 21:10:17 78° S 21:10:43 74° SE
USA 234 3.1 21:10:14 56° SE 21:11:51 89° SW 21:18:26 10° NW
Cosmos 1862 4.4 21:12:19 10° NNW 21:16:03 41° W 21:16:03 41° W
SL-16 R/B 4.2 21:13:06 10° WSW 21:17:51 27° WNW 21:22:39 10° N
Lacrosse 4 Rocket 2.4 21:17:50 10° NW 21:21:30 45° W 21:21:30 45° W
ERS-1 Rocket 3.1 21:22:09 66° WSW 21:22:15 66° WSW 21:27:15 10° NNW
MetOp-B 4.1 21:23:30 74° NNE 21:23:30 74° NNE 21:28:27 10° N
ATLAS 5 CENTAUR R/B 2.7 21:23:31 10° NNW 21:29:19 53° NE 21:29:19 53° NE
ARGOS 3.5 21:34:29 58° N 21:34:29 58° N 21:38:49 10° N
Skynet4D Del rocket 4.5 21:26:31 10° WSW 21:33:55 55° SSW 21:33:55 55° SSW
SeaSat 1 3.3 21:36:49 43° N 21:36:49 43° N 21:40:18 10° NNW
Terra 4.0 21:48:57 17° NNE 21:48:57 17° NNE 21:50:17 10° N
Cosmos 1844 Rocket 4.2 21:47:45 10° N 21:50:44 26° NNE 21:50:44 26° NNE
USA 229 DEB 4.2 21:50:30 10° SW 21:57:08 54° NW 22:03:54 10° NNE
USA 229 4.2 21:50:35 10° SW 21:57:13 55° WNW 22:03:59 10° NNE
Atlas Centaur 2 3.0 21:50:18 10° W 21:56:51 66° SW 21:56:51 66° SW
Cosmos 2219 Rocket 4.3 22:10:17 16° NNE 22:10:17 16° NNE 22:11:25 10° NNE
H-2A R/B 3.6 22:14:05 30° NNW 22:14:05 30° NNW 22:16:33 10° NNW
CZ-4C R/B 4.4 22:11:49 10° N 22:17:19 23° NE 22:17:19 23° NE
Milstar 3 4.4 22:24:21 10° W 22:26:44 21° WSW 22:26:44 21° WSW
COSMOS 2428 4.3 22:34:03 31° NNW 22:34:03 31° NNW 22:37:37 10° N
Cosmos 2263 Rocket 4.4 22:29:16 10° WNW 22:31:52 17° W 22:31:52 17° W
Cosmos 2333 Rocket 4.4 23:16:06 21° N 23:16:06 21° N 23:18:05 10° N
